Погода в Раменском

Россия / Московская область     55°34′02″N   38°13′33″E
темп.,
°C
ветер,
м/с
пор.,
м/с
влажн.,
%
обл.,
%
осадки,
мм/ч
давл.,
гПа
погр.,
м
20 сентября, пн
пн2000:00+5в91790100 4.2 1018756
03:00+5в91793100 10.9 1017781
06:00+5в91794100 4.4 1016827
09:00+5в91792100 7.4 1016957
12:00+6в81593100 1.1 10171027
15:00+6в81593100 2.0 10171035
18:00+5в81594100 0.4 1016974
21:00+6в81493100 2.8 1016915
21 сентября, вт
вт2100:00+6в71494100 2.7 1016856
03:00+6в71395100 5.9 1015781
06:00+6в71395100 2.1 1014720
09:00+6в61195100 3.4 1014652
12:00+6в51096100 0.6 1014584
15:00+7в5995100 1.1 1013573
18:00+6всв4897100 1.1 1013462
21:00+6всв4897100 4.1 1013411
22 сентября, ср
ср2200:00+6всв4798100 1.6 1012378
03:00+6св3698100 2.6 1012300
06:00+6св3698100 0.1 1011341
09:00+6св4796100 0.6 1012423
12:00+6св3595100 1.4 1012407
15:00+6св3495100 2.1 1013339
18:00+6св2597100 0.2 1013289
21:00+6св249797 0.3 1014201
23 сентября, чт
чт2300:00+6ссв2397100 0.1 1014131
03:00+6ссв2598100 1.8 1013193
06:00+7св2399100 0.8 1013190
09:00+7ююв3797100 1.2 1014388
12:00+10ююв5781100 0.1 1015736
15:00+10ююв4676100 0.2 1015880
18:00+9ююв3682100 0.4 1015147
21:00+8ю2486100 0.6 1015131
24 сентября, пт
пт2400:00+8ююв2587100 0.0 1015153
03:00+7юв2589100 0.3 1014177
06:00+7ю2392100 0.1 1013142
09:00+7ююв3789100 0.3 1013473
12:00+8ю4879100 0.1 1011778
15:00+10ю566832 0.1 10091065
18:00+8ююв4874100 0.1 1009319
21:00+7ю4108195 0.3 1009437